Tracking 17699 objects as of 1-June-2016
HD Live streaming from Space Station
objects crossing your sky now

PSLV DEB

Track PSLV DEB now!
10-day predictions


NORAD ID: 27114
Int'l Code: 2001-049BJ
Perigee: 416.5 km
Apogee: 431.4 km
Inclination: 97.8 °
Period: 92.9 minutes
Semi major axis: 6794 km
RCS: 0.0473 m2 (small)
Launch date: October 22, 2001
Source: India (IND)
Launch site: SIRHARIKOTA (SRI)

Note: This is SATELLITE DEBRIS
Your satellite tracking list
Your tracking list is empty





NASA's NSSDC Master Catalog

Two Line Element Set (TLE):
1 27114U 01049BJ  16152.75683716  .00035693  00000-0  63592-3 0  9991
2 27114  97.8349 158.0305 0010956 147.8935 212.2984 15.49970733786329
Source of the keplerian elements: AFSPC

N2YO: 490